User: anonymous   Login
Location: Carnetin
(48.9010°N, 2.7059°E)
Time: 03:44:31
(UTC+00:00)
Language:

SWARM A - Orbit

View from above orbital plane
View from above orbital plane
View from above satellite
View from above satellite

Ground track
Ground track

The orbit data is extracted from the following two-line orbital elements,

1 39452U 13067B   22026.77912683  .00004117  00000-0  81017-4 0  9999
2 39452  87.3585 276.2395 0002428  94.7624 265.3912 15.46900998460080
Epoch (UTC): 26 January 2022 18:41:56
Eccentricity: 0.0002428
inclination: 87.3585°
perigee height: 424 km
apogee height: 427 km
right ascension of ascending node: 276.2395°
argument of perigee: 94.7624°
revolutions per day: 15.46900998
mean anomaly at epoch: 265.3912°
orbit number at epoch: 46008

The dashed part of the orbit path shows where the satellite is in the earth's shadow,  

DLR